TKY91K LDPL-LIMJ

Flight info

Callsign TKY91K
Flight time 0h 46m
Altitude 37000
Route PEVAL DCT ROSKA DCT ROVIG DCT LUMAV DCT BOA/N0332F190 M859 GOLAS
Aircraft A20N/M-SDE2E3FGHIRWXY/LB1

Departure

Time 2026-04-22 13:37
Airport Pula Airport (LDPL)

Arrival

Time 2026-04-22 14:24
Airport Genoa Cristoforo Colombo Airport (LIMJ)
Time Latitude Longitude Altitude Speed Heading
2026-04-22 13:23 44.89672 13.92076 226 ft 0 kts 45°
2026-04-22 13:33 44.89677 13.92087 227 ft 3 kts 67°
2026-04-22 13:33 44.89660 13.92099 226 ft 7 kts 170°
2026-04-22 13:33 44.89630 13.92201 226 ft 17 kts 88°
2026-04-22 13:33 44.89633 13.92400 226 ft 19 kts 89°
2026-04-22 13:34 44.89583 13.92520 226 ft 14 kts 100°
2026-04-22 13:34 44.89585 13.92683 225 ft 19 kts 87°
2026-04-22 13:34 44.89590 13.92878 225 ft 21 kts 89°
2026-04-22 13:34 44.89593 13.93098 228 ft 23 kts 88°
2026-04-22 13:35 44.89538 13.93313 225 ft 26 kts 119°
2026-04-22 13:35 44.89457 13.93526 226 ft 25 kts 120°
2026-04-22 13:35 44.89388 13.93698 226 ft 21 kts 91°
2026-04-22 13:35 44.89384 13.93926 225 ft 26 kts 97°
2026-04-22 13:36 44.89409 13.94059 221 ft 8 kts 354°
2026-04-22 13:36 44.89402 13.94012 222 ft 12 kts 232°
2026-04-22 13:36 44.89392 13.93955 226 ft 1 kts 270°
2026-04-22 13:36 44.89390 13.93808 226 ft 46 kts 268°
2026-04-22 13:37 44.89372 13.93030 222 ft 110 kts 268°
2026-04-22 13:37 44.89339 13.91747 357 ft 143 kts 270°
2026-04-22 13:37 44.89342 13.90305 847 ft 150 kts 272°
2026-04-22 13:37 44.89313 13.88779 1390 ft 160 kts 270°
2026-04-22 13:38 44.89254 13.87198 2091 ft 162 kts 270°
2026-04-22 13:38 44.89144 13.83740 3161 ft 196 kts 271°
2026-04-22 13:38 44.89088 13.81722 3795 ft 216 kts 271°
2026-04-22 13:39 44.89029 13.79510 4522 ft 231 kts 270°
2026-04-22 13:39 44.89267 13.77321 5572 ft 224 kts 299°
2026-04-22 13:39 44.90243 13.75676 6575 ft 219 kts 332°
2026-04-22 13:39 44.91678 13.74993 7152 ft 222 kts 357°
2026-04-22 13:40 44.93237 13.74916 7285 ft 230 kts
2026-04-22 13:40 44.94838 13.74937 7404 ft 229 kts
2026-04-22 13:40 44.96438 13.74944 7518 ft 231 kts
2026-04-22 13:40 44.98048 13.74915 7631 ft 231 kts
2026-04-22 13:41 44.99656 13.74857 7753 ft 233 kts 360°
2026-04-22 13:41 45.01283 13.74780 7860 ft 238 kts 360°
2026-04-22 13:41 45.03051 13.74697 7992 ft 265 kts 359°
2026-04-22 13:41 45.04907 13.74608 8000 ft 265 kts 359°
2026-04-22 13:42 45.06730 13.74519 7996 ft 264 kts 359°
2026-04-22 13:42 45.08571 13.74426 7997 ft 265 kts 360°
2026-04-22 13:42 45.10426 13.74335 7996 ft 265 kts 360°
2026-04-22 13:42 45.12264 13.74241 7999 ft 265 kts 360°
2026-04-22 13:43 45.14102 13.74033 7959 ft 267 kts 348°
2026-04-22 13:43 45.15766 13.72815 8132 ft 275 kts 321°
2026-04-22 13:43 45.16861 13.70599 8837 ft 283 kts 297°
2026-04-22 13:43 45.17643 13.68064 10086 ft 280 kts 297°
2026-04-22 13:44 45.18456 13.65480 10772 ft 297 kts 297°
2026-04-22 13:44 45.19337 13.62705 11189 ft 320 kts 297°
2026-04-22 13:44 45.20269 13.59746 11818 ft 333 kts 297°
2026-04-22 13:44 45.21210 13.56731 12754 ft 336 kts 297°
2026-04-22 13:45 45.22162 13.53674 13678 ft 340 kts 297°
2026-04-22 13:45 45.23124 13.50586 14515 ft 344 kts 297°
2026-04-22 13:45 45.24093 13.47475 15361 ft 346 kts 297°
2026-04-22 13:45 45.25070 13.44331 16179 ft 349 kts 297°
2026-04-22 13:46 45.26052 13.41171 17006 ft 352 kts 297°
2026-04-22 13:46 45.27042 13.37981 17809 ft 355 kts 297°
2026-04-22 13:46 45.28042 13.34757 18577 ft 358 kts 297°
2026-04-22 13:46 45.29039 13.31535 19260 ft 360 kts 297°
2026-04-22 13:47 45.30036 13.28254 19953 ft 364 kts 294°
2026-04-22 13:47 45.30778 13.24784 20655 ft 370 kts 286°
2026-04-22 13:47 45.31153 13.21138 21335 ft 377 kts 278°
2026-04-22 13:47 45.31203 13.17378 22000 ft 382 kts 274°
2026-04-22 13:48 45.31224 13.13595 22670 ft 385 kts 275°
2026-04-22 13:48 45.31253 13.09772 23339 ft 387 kts 275°
2026-04-22 13:48 45.31284 13.05936 23961 ft 390 kts 275°
2026-04-22 13:48 45.31313 13.02061 24565 ft 390 kts 275°
2026-04-22 13:49 45.31339 12.98212 25202 ft 390 kts 275°
2026-04-22 13:49 45.31363 12.94353 25785 ft 391 kts 275°
2026-04-22 13:49 45.31345 12.90533 26339 ft 394 kts 271°
2026-04-22 13:49 45.30928 12.86651 26897 ft 401 kts 261°
2026-04-22 13:50 45.30025 12.82865 27433 ft 409 kts 252°
2026-04-22 13:50 45.28677 12.79269 27960 ft 415 kts 246°
2026-04-22 13:50 45.27239 12.75703 28448 ft 416 kts 247°
2026-04-22 13:50 45.25804 12.72125 28931 ft 418 kts 248°
2026-04-22 13:51 45.24368 12.68540 29400 ft 419 kts 248°
2026-04-22 13:51 45.22924 12.64938 29800 ft 420 kts 248°
2026-04-22 13:51 45.21477 12.61330 30242 ft 421 kts 248°
2026-04-22 13:51 45.20021 12.57703 30583 ft 424 kts 248°
2026-04-22 13:52 45.18556 12.54058 30883 ft 427 kts 248°
2026-04-22 13:52 45.17082 12.50396 31203 ft 430 kts 248°
2026-04-22 13:52 45.15599 12.46720 31568 ft 431 kts 248°
2026-04-22 13:52 45.14108 12.43029 31959 ft 431 kts 248°
2026-04-22 13:53 45.12616 12.39340 32358 ft 432 kts 248°
2026-04-22 13:53 45.11120 12.35647 32754 ft 432 kts 248°
2026-04-22 13:53 45.09647 12.32015 33154 ft 432 kts 248°
2026-04-22 13:53 45.08151 12.28327 33544 ft 432 kts 248°
2026-04-22 13:54 45.06653 12.24642 33916 ft 432 kts 248°
2026-04-22 13:54 45.05150 12.20946 34285 ft 431 kts 248°
2026-04-22 13:54 45.03654 12.17274 34586 ft 431 kts 248°
2026-04-22 13:54 45.02155 12.13595 34884 ft 431 kts 247°
2026-04-22 13:55 45.00653 12.09915 35171 ft 431 kts 247°
2026-04-22 13:55 44.99172 12.06293 35456 ft 431 kts 247°
2026-04-22 13:55 44.97668 12.02616 35744 ft 431 kts 247°
2026-04-22 13:55 44.96168 11.98956 36018 ft 431 kts 247°
2026-04-22 13:56 44.94668 11.95301 36286 ft 431 kts 246°
2026-04-22 13:56 44.93159 11.91630 36552 ft 431 kts 246°
2026-04-22 13:56 44.91664 11.87978 36807 ft 430 kts 247°
2026-04-22 13:56 44.90212 11.84276 37059 ft 430 kts 248°
2026-04-22 13:57 44.87371 11.76880 37168 ft 428 kts 248°
2026-04-22 13:57 44.84525 11.69535 37167 ft 427 kts 248°
2026-04-22 13:58 44.81218 11.62508 37165 ft 435 kts 238°
2026-04-22 13:58 44.76998 11.56360 37161 ft 445 kts 228°
2026-04-22 13:59 44.72225 11.50774 37159 ft 445 kts 227°
2026-04-22 13:59 44.67478 11.45199 37158 ft 445 kts 227°
2026-04-22 14:00 44.62716 11.39614 37158 ft 445 kts 227°
2026-04-22 14:00 44.57989 11.34027 36854 ft 440 kts 232°
2026-04-22 14:01 44.56013 11.30848 36592 ft 424 kts 244°
2026-04-22 14:01 44.54587 11.27356 36337 ft 411 kts 254°
2026-04-22 14:01 44.53678 11.23639 36083 ft 399 kts 264°
2026-04-22 14:01 44.53268 11.19827 35608 ft 391 kts 273°
2026-04-22 14:02 44.53121 11.16025 35012 ft 390 kts 274°
2026-04-22 14:02 44.52970 11.12232 34411 ft 387 kts 274°
2026-04-22 14:02 44.52812 11.08474 33690 ft 385 kts 274°
2026-04-22 14:02 44.52650 11.04750 33043 ft 381 kts 274°
2026-04-22 14:03 44.52482 11.01054 32377 ft 377 kts 274°
2026-04-22 14:03 44.52313 10.97407 31719 ft 374 kts 273°
2026-04-22 14:03 44.52144 10.93787 31200 ft 367 kts 273°
2026-04-22 14:03 44.51977 10.90238 30731 ft 360 kts 273°
2026-04-22 14:04 44.51814 10.86771 30270 ft 354 kts 273°
2026-04-22 14:04 44.51654 10.83366 29775 ft 346 kts 273°
2026-04-22 14:04 44.51497 10.80036 29332 ft 339 kts 273°
2026-04-22 14:04 44.51347 10.76865 28908 ft 332 kts 274°
2026-04-22 14:05 44.51195 10.73524 28475 ft 350 kts 273°
2026-04-22 14:05 44.51041 10.70043 27991 ft 362 kts 273°
2026-04-22 14:05 44.50708 10.63003 27045 ft 358 kts 273°
2026-04-22 14:06 44.50537 10.59544 26520 ft 353 kts 273°
2026-04-22 14:06 44.50370 10.56125 25995 ft 348 kts 273°
2026-04-22 14:06 44.50208 10.52768 25487 ft 343 kts 273°
2026-04-22 14:06 44.50048 10.49461 24980 ft 338 kts 273°
2026-04-22 14:07 44.49890 10.46188 24479 ft 334 kts 273°
2026-04-22 14:07 44.49735 10.42990 23998 ft 331 kts 273°
2026-04-22 14:07 44.49580 10.39787 23426 ft 328 kts 273°
2026-04-22 14:07 44.49424 10.36629 22947 ft 322 kts 273°
2026-04-22 14:08 44.49269 10.33506 22476 ft 324 kts 273°
2026-04-22 14:08 44.49116 10.30217 21950 ft 348 kts 272°
2026-04-22 14:08 44.48955 10.26782 21412 ft 358 kts 272°
2026-04-22 14:08 44.48783 10.23298 20865 ft 359 kts 271°
2026-04-22 14:09 44.48606 10.19831 20326 ft 356 kts 271°
2026-04-22 14:09 44.48430 10.16389 19768 ft 352 kts 271°
2026-04-22 14:09 44.48258 10.12988 19231 ft 348 kts 271°
2026-04-22 14:09 44.48091 10.09618 18685 ft 346 kts 271°
2026-04-22 14:10 44.47926 10.06271 18122 ft 344 kts 271°
2026-04-22 14:10 44.47762 10.02947 17576 ft 339 kts 271°
2026-04-22 14:10 44.47599 9.99726 17068 ft 334 kts 271°
2026-04-22 14:10 44.47436 9.96496 16537 ft 331 kts 271°
2026-04-22 14:11 44.47274 9.93287 16025 ft 330 kts 270°
2026-04-22 14:11 44.47112 9.90092 15503 ft 328 kts 270°
2026-04-22 14:11 44.46949 9.86923 14995 ft 326 kts 270°
2026-04-22 14:11 44.46841 9.84821 14650 ft 325 kts 270°
2026-04-22 14:12 44.46671 9.81667 14152 ft 324 kts 269°
2026-04-22 14:12 44.46491 9.78510 13601 ft 323 kts 269°
2026-04-22 14:12 44.46310 9.75390 13100 ft 321 kts 269°
2026-04-22 14:12 44.46127 9.72267 12583 ft 319 kts 269°
2026-04-22 14:13 44.45947 9.69180 12097 ft 317 kts 269°
2026-04-22 14:13 44.45767 9.66106 11608 ft 316 kts 269°
2026-04-22 14:13 44.45337 9.63082 11104 ft 320 kts 252°
2026-04-22 14:13 44.44163 9.60423 10604 ft 325 kts 230°
2026-04-22 14:14 44.42424 9.58417 10343 ft 319 kts 219°
2026-04-22 14:14 44.40689 9.56580 10198 ft 307 kts 220°
2026-04-22 14:14 44.39012 9.54787 9960 ft 299 kts 220°
2026-04-22 14:14 44.37412 9.53068 9813 ft 289 kts 220°
2026-04-22 14:15 44.35818 9.51361 9634 ft 286 kts 219°
2026-04-22 14:15 44.34268 9.49700 9463 ft 279 kts 219°
2026-04-22 14:15 44.32742 9.48063 9157 ft 275 kts 219°
2026-04-22 14:15 44.31226 9.46434 8759 ft 274 kts 219°
2026-04-22 14:16 44.29716 9.44812 8534 ft 271 kts 222°
2026-04-22 14:16 44.28527 9.42829 7872 ft 270 kts 246°
2026-04-22 14:16 44.28085 9.40250 6938 ft 280 kts 274°
2026-04-22 14:16 44.28507 9.37598 6157 ft 282 kts 292°
2026-04-22 14:17 44.29227 9.35051 5668 ft 281 kts 295°
2026-04-22 14:17 44.29969 9.32543 5277 ft 279 kts 294°
2026-04-22 14:17 44.30733 9.30071 4907 ft 276 kts 300°
2026-04-22 14:17 44.31608 9.27747 4657 ft 269 kts 297°
2026-04-22 14:18 44.32317 9.25328 4563 ft 267 kts 291°
2026-04-22 14:18 44.32873 9.22917 4495 ft 254 kts 288°
2026-04-22 14:18 44.33366 9.20619 4499 ft 240 kts 289°
2026-04-22 14:18 44.33840 9.18434 4485 ft 229 kts 289°
2026-04-22 14:19 44.34297 9.16326 4349 ft 225 kts 289°
2026-04-22 14:19 44.34748 9.14242 4098 ft 224 kts 289°
2026-04-22 14:19 44.35198 9.12165 3854 ft 223 kts 289°
2026-04-22 14:19 44.35639 9.10126 3722 ft 214 kts 289°
2026-04-22 14:20 44.36488 9.06205 3238 ft 207 kts 289°
2026-04-22 14:20 44.36897 9.04312 2918 ft 200 kts 289°
2026-04-22 14:20 44.37294 9.02476 2628 ft 193 kts 290°
2026-04-22 14:21 44.38033 8.99059 2094 ft 175 kts 290°
2026-04-22 14:21 44.38368 8.97509 1870 ft 157 kts 290°
2026-04-22 14:22 44.38940 8.94861 1442 ft 130 kts 291°
2026-04-22 14:22 44.39200 8.93666 1270 ft 128 kts 292°
2026-04-22 14:22 44.39717 8.91276 903 ft 128 kts 291°
2026-04-22 14:23 44.39975 8.90081 727 ft 130 kts 291°
2026-04-22 14:23 44.40235 8.88876 542 ft 127 kts 292°
2026-04-22 14:23 44.40488 8.87697 375 ft 129 kts 290°
2026-04-22 14:23 44.40738 8.86494 196 ft 126 kts 290°
2026-04-22 14:24 44.40967 8.85343 23 ft 119 kts 290°
2026-04-22 14:24 44.41150 8.84434 20 ft 70 kts 285°
2026-04-22 14:24 44.41223 8.84055 20 ft 34 kts 286°
2026-04-22 14:24 44.41311 8.83787 19 ft 27 kts 318°
2026-04-22 14:25 44.41420 8.83824 19 ft 21 kts 92°
2026-04-22 14:25 44.41388 8.84004 19 ft 17 kts 104°
2026-04-22 14:25 44.41354 8.84182 21 ft 21 kts 105°
2026-04-22 14:25 44.41319 8.84384 19 ft 22 kts 80°
2026-04-22 14:26 44.41406 8.84565 20 ft 23 kts 53°
2026-04-22 14:26 44.41506 8.84749 20 ft 20 kts 57°
2026-04-22 14:26 44.41495 8.84906 20 ft 8 kts 107°
2026-04-22 14:26 44.41494 8.84912 20 ft 0 kts 105°